Regional Weather Roundup
Issued by NWS

Home | Current Version | Previous Version | Graphics & Text | Print | Product List | Glossary On
Versions: 1 2 3 4 5 6 7 8 9 10 11 12 13 14 15 16 17 18 19 20 21 22 23 24 25 26 27 28 29 30 31 32 33 34 35 36 37 38 39 40 41 42 43 44 45 46 47 48 49 50
003
ASUS44 KLIX 291101
RWRLA
LOUISIANA WEATHER ROUNDUP
NATIONAL WEATHER SERVICE NEW ORLEANS LA
600 AM CDT FRI AUG 29 2014

NOTE: "FAIR" INDICATES FEW OR NO CLOUDS BELOW 12,000 FEET WITH NO
      SIGNIFICANT WEATHER AND/OR OBSTRUCTIONS TO VISIBILITY.
      SKY/WX - SKY CONDITION AND SIGNIFICANT WEATHER.
      TMP - AIR TEMPERATURE.    DP   - DEWPOINT TEMPERATURE.
      RH  - RELATIVE HUMIDITY.  PRES - PRESSURE.
      HX  - HEAT INDEX.         WCI  - WIND CHILL INDEX.

*  THESE STATIONS ARE NOT NWS OR FAA STATIONS AND ARE NOT UNDER
   NWS QUALITY CONTROL.

LAZ040-048-061>063-065-066-069-291200-
SOUTHEAST LOUISIANA

CITY           SKY/WX    TMP DP  RH WIND       PRES   REMARKS
N.O. AUDUBON   NOT AVBL
N.O. INTL ARPT PTCLDY    79  72  79 E3        29.94R
N.O. LAKEFRONT CLEAR     81  74  79 E6        29.95R
N.O. DOWNTOWN* FAIR      82  72  69 E3        29.95S
SLIDELL        CLEAR     72  69  90 N3        29.96R
BATON ROUGE    PTCLDY    75  73  93 NE3       29.95R
BOOTHVILLE     PTCLDY    82  78  88 E3        29.94R
BELLE CHASSE   MOCLDY    77  72  84 NE5       29.94R
BOGALUSA*        N/A     72  69  90 CALM      29.98R
GALLIANO*      NOT AVBL
NEW ROADS*     FAIR      75  74  97 CALM      29.94S
GONZALES*      FAIR      75  75 100 CALM      29.94S
HAMMOND*       NOT AVBL
HOUMA*         PTCLDY    77  73  86 NE6       29.92F
PORT FOURCHON* SUNNY     84  75  74 SE13      29.93S

$$

LAZ041-044-053-054-291200-
SOUTHWEST LOUISIANA

CITY           SKY/WX    TMP DP  RH WIND       PRES   REMARKS
LAKE CHARLES   CLEAR     75  74  96 E5        29.91R
LAFAYETTE      PTCLDY    76  73  91 E3        29.93R
PATTERSON        N/A     75  73  94 E7        29.95S
SALT POINT       N/A     80  76  87 VRB3      29.92R
NEW IBERIA     CLEAR     77  74  90 E7        29.93R
CHENAULT AIRPK NOT AVBL

$$

LAZ027-028-291200-
CENTRAL LOUISIANA

CITY           SKY/WX    TMP DP  RH WIND       PRES   REMARKS
FORT POLK      PTCLDY    75  73  93 E6        29.93S
ALEXANDRIA INT PTCLDY    75  73  93 CALM      29.92S
ALEXANDRIA     CLEAR     73  71  93 CALM      29.95R FOG

$$

LAZ001-002-291200-
NORTHWEST LOUISIANA

CITY           SKY/WX    TMP DP  RH WIND       PRES   REMARKS
SHREVEPORT     MOCLDY    78  72  81 CALM      29.94R
BARKSDALE AFB  CLOUDY    77  72  84 SE5       29.94R
DTN SHREVEPORT MOCLDY    79  73  82 SW5       29.94R

$$

LAZ014-016-291200-
NORTHEAST LOUISIANA

CITY           SKY/WX    TMP DP  RH WIND       PRES   REMARKS
MONROE         PTCLDY    73  71  93 NE3       29.96R
TALLULAH       PTCLDY    73  71  93 CALM      29.95S

$$




USA.gov is the U.S. government's official web portal to all federal, state and local government web resources and services.